| time (UTC) | temp F | wind direction | speed MPH | gust MPH | rain 1hr in | rain 24hr in | rain mn in | humidity % | barometer mb |
| 20260505090044 | 68 | 151 | 1.0 | 4.0 | 0.00 | 0.00 | 0.00 | 75 | 1002.9 |
| 20260505084543 | 68 | 155 | 1.0 | 4.0 | 0.00 | 0.00 | 0.00 | 75 | 1003.1 |
| 20260505083057 | 68 | 140 | 1.0 | 3.0 | 0.00 | 0.00 | 0.00 | 74 | 1003.1 |
| 20260505081540 | 68 | 165 | 1.0 | 3.0 | 0.00 | 0.00 | 0.00 | 74 | 1003.3 |
| 20260505080042 | 68 | 130 | 0.0 | 3.0 | 0.00 | 0.00 | 0.00 | 74 | 1003.3 |
| 20260505074537 | 68 | 117 | 0.0 | 0.0 | 0.00 | 0.00 | 0.00 | 73 | 1003.6 |
| 20260505073039 | 68 | 131 | 0.0 | 0.0 | 0.00 | 0.00 | 0.00 | 73 | 1003.8 |
| 20260505071535 | 69 | 64 | 0.0 | 0.0 | 0.00 | 0.00 | 0.00 | 73 | 1003.9 |
| 20260505070043 | 69 | 39 | 0.0 | 3.0 | 0.00 | 0.00 | 0.00 | 73 | 1004.2 |
| 20260505064533 | 69 | 31 | 0.0 | 0.0 | 0.00 | 0.00 | 0.00 | 73 | 1004.2 |
| 20260505063032 | 69 | 29 | 0.0 | 0.0 | 0.00 | 0.00 | 0.00 | 73 | 1004.4 |
| 20260505061542 | 69 | 359 | 0.0 | 0.0 | 0.00 | 0.00 | 0.00 | 71 | 1004.2 |
| 20260505060027 | 70 | 211 | 2.0 | 7.0 | 0.00 | 0.00 | 0.00 | 71 | 1003.5 |
| 20260505054540 | 70 | 179 | 1.0 | 10.0 | 0.00 | 0.00 | 0.00 | 70 | 1003.5 |
| 20260505053026 | 70 | 233 | 2.0 | 8.0 | 0.00 | 0.00 | 0.00 | 70 | 1003.6 |
| 20260505051523 | 70 | 218 | 2.0 | 7.0 | 0.00 | 0.00 | 0.00 | 69 | 1003.6 |
| 20260505041510 | 70 | 252 | 2.0 | 6.0 | 0.00 | 0.00 | 0.00 | 67 | 1003.5 |
| 20260505040018 | 70 | 146 | 2.0 | 6.0 | 0.00 | 0.00 | 0.00 | 66 | 1003.9 |
| 20260505034504 | 70 | 165 | 3.0 | 10.0 | 0.00 | 0.00 | 0.00 | 64 | 1003.9 |
| 20260505033003 | 70 | 226 | 4.0 | 11.0 | 0.00 | 0.00 | 0.00 | 63 | 1004.2 |
| 20260505031600 | 71 | 151 | 2.0 | 8.0 | 0.00 | 0.00 | 0.00 | 63 | 1004.4 |
| 20260505030059 | 71 | 162 | 3.0 | 8.0 | 0.00 | 0.00 | 0.00 | 62 | 1004.5 |
| 20260505024557 | 71 | 120 | 4.0 | 10.0 | 0.00 | 0.00 | 0.00 | 61 | 1004.7 |
| 20260505023057 | 72 | 151 | 3.0 | 7.0 | 0.00 | 0.00 | 0.00 | 60 | 1004.8 |
| 20260505021558 | 72 | 147 | 3.0 | 10.0 | 0.00 | 0.00 | 0.00 | 60 | 1004.6 |
| 20260505020055 | 73 | 146 | 3.0 | 7.0 | 0.00 | 0.00 | 0.00 | 60 | 1004.7 |
| 20260505014554 | 73 | 152 | 2.0 | 6.0 | 0.00 | 0.00 | 0.00 | 59 | 1004.6 |
| 20260505013053 | 73 | 136 | 3.0 | 8.0 | 0.00 | 0.00 | 0.00 | 59 | 1004.6 |
| 20260505011554 | 74 | 129 | 2.0 | 8.0 | 0.00 | 0.00 | 0.00 | 59 | 1004.5 |
| 20260505010059 | 74 | 221 | 2.0 | 7.0 | 0.00 | 0.00 | 0.00 | 59 | 1004.4 |
| 20260505004551 | 75 | 168 | 1.0 | 7.0 | 0.00 | 0.00 | 0.00 | 59 | 1004.5 |
| 20260505003151 | 75 | 142 | 2.0 | 10.0 | 0.00 | 0.00 | 0.00 | 58 | 1004.5 |
| 20260505001550 | 75 | 158 | 1.0 | 7.0 | 0.00 | 0.00 | 0.00 | 58 | 1004.7 |
| 20260505000055 | 76 | 139 | 3.0 | 8.0 | 0.00 | 0.00 | 0.00 | 57 | 1004.9 |
| 20260504234545 | 76 | 207 | 1.0 | 8.0 | 0.00 | 0.00 | 0.00 | 57 | 1004.9 |
| 20260504233044 | 76 | 175 | 2.0 | 9.0 | 0.00 | 0.00 | 0.00 | 57 | 1004.8 |
| 20260504231542 | 77 | 186 | 2.0 | 10.0 | 0.00 | 0.00 | 0.00 | 57 | 1004.9 |
| 20260504230042 | 77 | 124 | 1.0 | 11.0 | 0.00 | 0.00 | 0.00 | 56 | 1004.9 |
| 20260504224540 | 77 | 214 | 2.0 | 11.0 | 0.00 | 0.00 | 0.00 | 56 | 1004.9 |
| 20260504223039 | 77 | 193 | 3.0 | 11.0 | 0.00 | 0.00 | 0.00 | 56 | 1004.6 |
| 20260504221542 | 78 | 134 | 3.0 | 7.0 | 0.00 | 0.00 | 0.00 | 55 | 1004.7 |
| 20260504220046 | 78 | 88 | 1.0 | 7.0 | 0.00 | 0.00 | 0.00 | 56 | 1004.7 |
| 20260504214537 | 78 | 103 | 2.0 | 0.0 | 0.00 | 0.00 | 0.00 | 55 | 1004.9 |
| 20260504213045 | 78 | 88 | 2.0 | 7.0 | 0.00 | 0.00 | 0.00 | 54 | 1004.9 |
| 20260504211539 | 78 | 115 | 2.0 | 10.0 | 0.00 | 0.00 | 0.00 | 53 | 1005.0 |
| 20260504210033 | 78 | 130 | 1.0 | 5.0 | 0.00 | 0.00 | 0.00 | 54 | 1005.1 |
| 20260504204537 | 78 | 104 | 2.0 | 9.0 | 0.00 | 0.00 | 0.00 | 52 | 1005.4 |
| 20260504203027 | 79 | 126 | 2.0 | 7.0 | 0.00 | 0.00 | 0.00 | 52 | 1005.6 |
| 20260504201526 | 79 | 110 | 1.0 | 9.0 | 0.00 | 0.00 | 0.00 | 53 | 1005.9 |
| 20260504200024 | 79 | 93 | 3.0 | 10.0 | 0.00 | 0.00 | 0.00 | 52 | 1006.1 |
| 20260504194521 | 80 | 115 | 1.0 | 5.0 | 0.00 | 0.00 | 0.00 | 51 | 1006.3 |
| 20260504193022 | 80 | 109 | 2.0 | 9.0 | 0.00 | 0.00 | 0.00 | 52 | 1006.5 |
| 20260504191520 | 79 | 227 | 4.0 | 11.0 | 0.00 | 0.00 | 0.00 | 51 | 1006.5 |
| 20260504190022 | 80 | 104 | 3.0 | 10.0 | 0.00 | 0.00 | 0.00 | 51 | 1006.5 |
| 20260504184515 | 80 | 248 | 2.0 | 8.0 | 0.00 | 0.00 | 0.00 | 52 | 1006.8 |
| 20260504183014 | 80 | 135 | 3.0 | 7.0 | 0.00 | 0.00 | 0.00 | 50 | 1007.0 |
| 20260504181517 | 79 | 107 | 3.0 | 12.0 | 0.00 | 0.00 | 0.00 | 50 | 1007.2 |
| 20260504180010 | 79 | 111 | 3.0 | 12.0 | 0.00 | 0.00 | 0.00 | 51 | 1007.4 |
| 20260504174506 | 79 | 122 | 4.0 | 16.0 | 0.00 | 0.00 | 0.00 | 50 | 1007.7 |
| 20260504173004 | 79 | 149 | 3.0 | 11.0 | 0.00 | 0.00 | 0.00 | 50 | 1007.8 |
| 20260504171506 | 78 | 148 | 2.0 | 7.0 | 0.00 | 0.00 | 0.00 | 50 | 1008.0 |
| 20260504100117 | 64 | 132 | 0.0 | 2.0 | 0.00 | 0.00 | 0.00 | 58 | 1010.8 |